Regional Weather Roundup
Issued by NWS Charleston, SC

Current Version | Previous Version | Graphics & Text | Print | Product List | Glossary On
Versions: 1 2 3 4 5 6 7 8 9 10 11 12 13 14 15 16 17 18 19 20 21 22 23 24 25 26 27 28 29 30 31 32 33 34 35 36 37 38 39 40 41 42 43 44 45 46 47 48 49 50
000
ASUS42 KCHS 221110
RWRCHS
REGIONAL WEATHER ROUNDUP
NATIONAL WEATHER SERVICE CHARLESTON SC
700 AM EDT MON SEP 22 2014

NOTE: "FAIR" INDICATES FEW OR NO CLOUDS BELOW 12,000 FEET WITH NO
SIGNIFICANT WEATHER AND/OR OBSTRUCTIONS TO VISIBILITY.

NOT ALL STATIONS ARE QUALITY CONTROLLED BY THE NATIONAL
WEATHER SERVICE. USE DATA WITH CAUTION...ESPECIALLY
DEWPOINT OBSERVATIONS.

SCZ027-030-031-034>040-042>050-221200-
...SOUTH CAROLINA...

CITY           SKY/WX    TMP DP  RH WIND       PRES   REMARKS
N CHARLESTON   PTCLDY    70  63  78 W3        29.98R
WATERFRONT PRK NOT AVBL
FORT JOHNSON   NOT AVBL
MOUNT PLEASANT FAIR      73  63  68 W5        29.98R
JOHNS ISLAND   SUNNY     72  66  83 CALM      29.98R
PINOPOLIS        N/A     72  66  83 SW10      29.87R
MONCKS CORNER    N/A     70  66  88 W3        29.97R
SUMMERVILLE    CLOUDY    64  64 100 CALM      29.99R
BEAUFORT MCAS  PTCLDY    69  63  81 VRB5      29.98R
BEAUFORT ARPT  FAIR      70  64  83 SW5       29.98R
HILTON HEAD IS CLEAR     70  64  83 SW6       30.00R
GEORGETOWN     NOT AVBL
WALTERBORO     MOSUNNY   68  68 100 CALM      29.99R
ORANGEBURG     PTCLDY    71  62  73 W5        29.97R
BARNWELL       FAIR      70  63  78 CALM      29.98R
AIKEN          PTSUNNY   70  66  88 CALM      30.01R
MANNING        CLOUDY    73  64  73 CALM      29.97R
KINGSTREE      NOT AVBL
COLUMBIA       LGT RAIN  70  67  90 W5        29.97R
SUMTER         MOCLDY    70  66  88 VRB2      29.97R
FLORENCE       PTCLDY    71  65  81 NW3       29.96R
MYRTLE BEACH   NOT AVBL
N MYRTLE BEACH PTCLDY    71  64  78 NW5       29.96R

$$

GAZ063-065-086>088-099>101-113>116-118-119-134-136>141-150-221200-
...GEORGIA...

CITY           SKY/WX    TMP DP  RH WIND       PRES   REMARKS
SAVANNAH ARPT  PTCLDY    66  61  84 CALM      29.99R
HUNTER AAF     CLEAR     66  62  85 SW3       29.98R
FORT STEWART   CLEAR     65  60  84 VRB2      29.98R
STATESBORO     NOT AVBL
SYLVANIA       SUNNY     70  67  90 CALM      29.99S
CLAXTON        FAIR     N/A N/A N/A CALM      29.99R
THOMSON        MOCLDY    70  68  93 CALM      30.02R
AUGUSTA-BUSH   MOCLDY    67  64  90 SE3       29.96R
AUGUSTA-DANIEL CLEAR     73  63  70 CALM      29.97S
SWAINSBORO     FAIR      68  64  88 NW5       30.00R
VIDALIA        CLEAR     66  61  82 SW5       30.00R
ALMA           CLEAR     60  59  96 CALM      30.00R
WAYCROSS       NOT AVBL
JESUP          FAIR      63  61  94 CALM      30.01R
BRUNSWICK      CLEAR     64  61  88 CALM      30.01R
SAINT SIMONS   CLEAR     69  64  84 SW6       30.01R

$$

SCZ027-028-034-036>038-045-046-048>050-GAZ119-141-221200-
...LAKE AND SUPPLEMENTAL COASTAL OBSERVATIONS...

STATION/POSITION TIME  TEMP    WIND        PRES    WAVE   SWELL
                       AIR SEA DIR/SP/G            HT/PER HT/PER/DIR
                 (UTC) (F)     (DEG/KT/KT) (MB)    (FT/S) (FT/S/D)
UPR LAKE MARION  NOT AVBL
WINYAH BAY       1000   73     260/  8     1013.0S
LAKE MURRAY      1000   72     260/  6/  9 1014.2R
ACE BASIN NERRS  1000   70     260/  1     1015.0R
FORT PULASKI     1100   71     230/  5/  6 1015.8R
SAPELO ISLAND    1000   69     210/  5     1016.0S

$$

ANZ835-935-AMZ111-154-330-350-352-354-374-450-454-472-221200-
...C-MAN AND BUOY OBSERVATIONS...

STATION/POSITION TIME  TEMP    WIND        PRES    WAVE   SWELL
                       AIR SEA DIR/SP/G            HT/PER HT/PER/DIR
                 (UTC) (F)     (DEG/KT/KT) (MB)    (FT/S) (FT/S/D)
FOLLY BEACH CMAN 1000   73     260/  6/  8 1015.0R
BUOY 41004       1100   81 81  260/ 16/ 17 1014.5R   5/ 6   2/ 9
BUOY 41008       1100   79 83  240/ 14/ 16 1015.6R   3/ 4   2/110/ 9
5E ST. MARYS GA  1000      83                N/A     2/10
FRYING PAN BUOY  NOT AVBL
BUOY 41025       1100   80     260/ 19/ 23 1012.8R   7/ 6   2/130/ 9
CAPE LOOKOUT NC  1000   78     260/ 11/ 13 1012.9R
BUOY 41002       1009   80 81  280/ 10/ 12 1016.8R   5/ 8   5/130/ 8
BUOY 41010       1100   81 84  300/  2/  4 1016.3R   5/10   5/ 20/10
BUOY 41012       NOT AVBL
ST AUGUSTINE FL  1100   71     230/  5/  5 1016.9R
CAPERS NEARSHORE 1000   77     280/ 12/ 16   N/A
FRIPP NEARSHORE  NOT AVBL


$$


USA.gov is the U.S. government's official web portal to all federal, state and local government web resources and services.